Terminal Aerodrome Forecast
Issued by NWS Twin Cities, MN

Home | Current Version | Previous Version | Graphics & Text | Print | Product List | Glossary On
Versions: 1 2 3 4 5 6 7 8 9 10 11 12 13 14 15 16
000
FTUS43 KMPX 272055 AAA
TAFEAU
TAF AMD
KEAU 272055Z 2721/2818 30012G18KT P6SM -SHRA SCT025 OVC035
     FM280000 32008KT 6SM -SHRA BR SCT008 OVC015
     FM280500 34007KT P6SM OVC008
     FM281500 01009KT P6SM BKN010=

USA.gov is the U.S. government's official web portal to all federal, state and local government web resources and services.